Regional Weather Roundup
Issued by NWS New Orleans/Baton Rouge, LA

Home | Current Version | Previous Version | Text Only | Print | Product List | Glossary On
Versions: 1 2 3 4 5 6 7 8 9 10 11 12 13 14 15 16 17 18 19 20 21 22 23 24 25 26 27 28
000
ASUS44 KLIX 300911
RWRLIX
NEW ORLEANS REGIONAL WEATHER ROUNDUP
NATIONAL WEATHER SERVICE NEW ORLEANS LA
400 AM CDT TUE AUG 30 2016

NOTE: "FAIR" INDICATES FEW OR NO CLOUDS BELOW 12,000 FEET WITH NO
      SIGNIFICANT WEATHER AND/OR OBSTRUCTIONS TO VISIBILITY.
      SKY/WX - SKY CONDITION AND SIGNIFICANT WEATHER.
      TMP - AIR TEMPERATURE.     DP    - DEWPOINT TEMPERATURE.
      RH  - RELATIVE HUMIDITY.   PRES  - PRESSURE.
      HI  - HEAT INDEX.          WCI   - WIND CHILL INDEX.

*  THESE STATIONS ARE NOT NWS OR FAA STATIONS AND ARE NOT UNDER
   NWS QUALITY CONTROL.

LAZ038-040-048-061>063-065>067-069-301000-
SOUTHEAST LOUISIANA

CITY           SKY/WX    TMP DP  RH WIND       PRES   REMARKS
N.O. AUDUBON     N/A     81  78  90 MISG        N/A
N.O. INTL ARPT PTCLDY    83  78  85 N6        29.92F
N.O. LAKEFRONT CLEAR     83  77  82 NE13      29.92F
N.O. DOWNTOWN*   N/A     81  78  91 N3        29.92F
RESERVE*         N/A     78  76  94 N3        29.93S
SLIDELL        CLEAR     75  74  96 N5        29.92F
BATON ROUGE    CLEAR     74  73  97 CALM      29.95F
BOOTHVILLE     CLEAR     83  79  88 NE5       29.90F
BELLE CHASSE   CLEAR     78  77  96 N3        29.91F
BOGALUSA*        N/A     74  71  88 CALM      29.96F
GALLIANO*      SUNNY    N/A N/A N/A N3        29.91F
NEW ROADS*       N/A     73  73 100 CALM      29.96S
GONZALES*        N/A     74  74 100 N3        29.93S
HAMMOND*       CLEAR     73  72  94 N3        29.94F
HOUMA*         CLEAR     75  75 100 CALM      29.92F
PORT FOURCHON* SUNNY     81  79  94 N7        29.90F

$$

MSZ070-080>082-301000-
SOUTHERN MISSISSIPPI

CITY           SKY/WX    TMP DP  RH WIND       PRES   REMARKS
MCCOMB         CLEAR     77  72  84 NE5       29.97S
GULFPORT       CLEAR     77  74  90 NE5       29.92F
BILOXI         CLEAR     77  75  94 NE7       29.92F
PASCAGOULA     CLEAR     75  74  96 NE5       29.93F

$$

COASTAL OBSERVATIONS
LAKE AND NEARSHORE STATIONS

STATION/POSITION TIME  TEMP    WIND        PRES    WAVE
                       AIR SEA DIR/SP/G            HT/PER
                 (UTC) (F)     (DEG/KT/KT) (MB)    (FT/S)
PASCAGOULA       0800   79      50/  9/ 11 1013.0
WAVELAND YACHT   0800   80 84  360/  7/  8 1013.8
GRAND ISLE       0800   82 84   70/  6/  7 1013.0
SOUTHWEST PASS   0800           50/ 10/ 12   N/A
NEW CANAL        0800   83 85   20/  8/ 10 1012.9
SHELL BEACH      0800   83 85   10/  9/ 11 1013.4

OFFSHORE STATIONS

STATION/POSITION TIME  TEMP    WIND        PRES    WAVE
                       AIR SEA DIR/SP/G            HT/PER
                 (UTC) (F)     (DEG/KT/KT) (MB)    (FT/S)
64 S DAUPHIN ISL 0800   85 85   60/ 10/ 14 1012.3

$$





USA.gov is the U.S. government's official web portal to all federal, state and local government web resources and services.